Location: Newark
(45.8378°N, 5.5389°E)
Time: 20:53:19
(UTC+00:00)

YUBILEINY - Pass Details

Date: 17 December 2019
Orbit: 1478 x 1509 km, 82.5° (Epoch: 28 January)

Event Time Altitude Azimuth Distance (km) Brightness Sun altitude
Rises 05:41:46 0° 355° (N) 4,611 ? -15.2°
Reaches altitude 10° 05:45:16 10° 7° (N) 3,628 ? -14.6°
Maximum altitude 05:52:31 28° 63° (ENE) 2,494 ? -13.4°
Drops below altitude 10° 05:59:42 10° 120° (ESE) 3,623 ? -12.2°
Sets 06:03:10 0° 131° (SE) 4,603 ? -11.7°
